Regional Weather Roundup
Issued by NWS

Home | Current Version | Previous Version | Graphics & Text | Print | Product List | Glossary On
Versions: 1 2 3 4 5 6 7 8 9 10 11 12 13 14 15 16 17 18 19 20 21 22 23 24 25 26 27 28 29 30 31 32 33 34 35 36 37 38 39 40 41 42 43 44 45 46 47 48 49 50
000
ASUS45 KCYS 251010
RWRWY

WYOMING REGIONAL WEATHER ROUNDUP
NATIONAL WEATHER SERVICE CHEYENNE WY
300 AM MST SAT FEB 25 2017

NOTE:  "FAIR" INDICATES FEW OR NO CLOUDS BELOW 12,000 FEET
WITH NO SIGNIFICANT WEATHER AND/OR OBSTRUCTIONS TO VISIBILITY.

WYZ001-251100-
YELLOWSTONE NATIONAL PARK

CITY           SKY/WX    TMP DP  RH WIND       PRES   REMARKS
LK YELLOWSTONE   N/A      2  -1  88 CALM      29.90F
W YELLOWSTONE  NOT AVBL

$$
WYZ002>013-054>058-071-098>099-251100-
NORTHERN WYOMING

CITY           SKY/WX    TMP DP  RH WIND       PRES   REMARKS
JACKSON        FAIR       9   3  78 W6        29.99S WCI  -1
CODY           FAIR      19   5  54 NW10      29.95F WCI   7
GREYBULL       FAIR      26  21  81 CALM      29.98F
WORLAND        MOCLDY    18  15  88 S8        29.97F WCI   8
SHERIDAN       CLOUDY    23  17  78 W8        29.97F WCI  14
BUFFALO        CLOUDY    17   9  70 NW3       29.92F
GILLETTE       FAIR      20  16  84 W9        29.93S WCI   9
HULETT         CLOUDY    23  18  80 SW10      29.92F WCI  12
NEWCASTLE      FAIR       9   7  92 CALM      29.95F

$$
WYZ014>020-022>026-101>103-251100-
CENTRAL WYOMING

CITY           SKY/WX    TMP DP  RH WIND       PRES   REMARKS
BIG PINEY      FAIR      -6 -10  83 CALM      29.98F
PINEDALE       FAIR     -13 -17  84 NW7       29.98F WCI -29
DUBOIS         FAIR       0  -6  78 W15       29.88F WCI -20
LANDER         FAIR       8  -1  66 CALM      29.94F
RIVERTON       FAIR       7  -1  70 W13       29.95F WCI  -9
CASPER         MOCLDY     9   4  80 W8        29.93F WCI  -3
DOUGLAS        HAZE      -4  -9  79 N3        29.94F VSB 1/4

$$
WYZ021-027>030-104>119-251100-
SOUTHERN WYOMING

CITY           SKY/WX    TMP DP  RH WIND       PRES   REMARKS
EVANSTON       FAIR       4  -1  80 S7        29.99F WCI  -8
KEMMERER         N/A    N/A N/A N/A NW3       29.98F
FORT BRIDGER   FAIR      11   2  66 SW13      30.02F WCI  -4
ROCK SPRINGS   FAIR       6   0  76 SW17      29.99F WCI -13
DIXON            N/A     -1  -5  81 NE3       30.06S
RAWLINS        FAIR       8   0  69 SW16      29.95S WCI -10
SARATOGA       PTSUNNY    9   3  78 SW12      29.96F WCI  -6
LARAMIE        FAIR       8  -1  66 SW16      29.87S WCI -10
CHEYENNE       FAIR      11   1  64 W10       29.90F WCI  -3
TORRINGTON     CLOUDY     2  -2  83 NW6       29.96F FOG     WCI  -9
PINE BLUFFS    CLOUDY     9   7  92 S13       29.95F WCI  -7

$$



USA.gov is the U.S. government's official web portal to all federal, state and local government web resources and services.